EHI
3 2 1 0 1 2 3 4 4 5 4 2 1 0 1 2 3 2 3 5 9 13 14 14 15 15 13 11 10 7 6 7 8 7 6 6 4 3 4 6 5 3 3
2 1 0 1 1 2 2 2 2 3 3 1 1 0 0 1 2 1 2 4 7 10 12 12 14 13 11 9 9 7 6 6 7 6 5 6 6 5 6 6 5 3 3
1 0 0 1 2 2 1 0 1 1 1 1 1 0 0 0 0 0 1 2 4 7 8 10 11 10 9 9 8 6 5 5 4 4 5 6 7 7 7 6 5 4 3
1 0 0 1 1 1 0 0 0 0 0 0 0 0 0 0 0 0 0 1 2 3 5 7 7 7 8 8 7 6 4 3 2 3 4 5 6 6 5 5 5 4 3
3 1 0 0 1 1 0 0 0 0 0 0 0 0 0 0 0 0 0 0 1 1 2 3 4 5 6 5 5 5 4 2 1 2 3 4 4 3 3 4 4 3 2
3 2 1 1 1 1 0 0 0 0 0 0 0 0 0 0 0 0 0 0 0 0 0 1 2 3 3 3 4 4 4 2 1 1 1 2 3 3 3 3 3 2 1
3 3 2 1 1 1 0 0 0 0 0 0 0 0 0 0 0 0 0 0 0 0 0 0 0 0 1 2 3 4 3 3 1 1 1 2 2 3 3 3 2 1 0
4 3 2 1 0 0 0 0 0 0 0 0 0 0 0 0 0 0 0 0 0 0 0 0 0 0 0 1 2 3 3 3 3 3 2 3 4 4 3 2 2 1 0
3 2 1 0 0 0 0 0 0 0 0 0 0 0 0 0 0 0 0 0 0 0 0 0 0 0 0 0 1 2 3 4 4 4 3 4 5 4 2 2 1 1 1
1 1 0 0 0 0 0 0 0 0 0 0 0 0 0 0 0 0 0 0 0 0 0 0 0 0 0 0 0 1 2 3 3 3 2 2 2 3 2 2 2 2 3
0 0 0 0 0 0 0 0 0 0 0 0 0 0 0 0 0 0 0 0 0 0 0 0 0 0 0 0 0 0 1 1 1 1 2 1 0 1 1 2 3 5 5
0 1 1 0 0 0 0 0 0 0 0 0 0 0 0 0 0 0 0 0 0 0 0 0 0 0 0 0 0 0 0 0 0 0 1 1 0 0 1 2 4 6 7
1 1 2 2 2 1 0 0 0 0 0 0 0 0 0 0 0 0 0 0 0 0 0 0 0 0 0 0 0 0 0 0 0 0 0 0 0 0 1 3 4 6 7
1 2 3 4 5 4 2 1 1 0 0 0 0 0 0 0 0 0 0 0 0 0 0 0 0 0 0 0 0 0 0 0 0 0 0 0 0 0 1 2 3 4 4
2 2 3 5 6 5 4 3 3 1 1 0 0 0 0 0 0 0 0 0 0 0 0 0 0 0 0 0 0 0 0 0 0 0 0 0 0 0 0 0 1 1 2
2 2 3 5 5 4 4 5 4 3 2 1 0 0 0 0 0 0 0 0 0 0 0 0 0 0 0 0 0 0 0 0 0 0 0 0 0 0 0 0 0 0 1
1 2 3 5 5 4 3 4 4 3 3 2 1 1 0 0 0 0 0 0 0 0 0 0 0 0 0 0 0 0 0 0 0 0 0 0 0 0 0 0 0 0 0
1 2 3 3 4 4 3 3 3 3 3 3 3 2 1 1 1 0 0 0 0 0 0 0 0 0 0 0 0 0 0 0 0 0 0 0 0 0 0 0 0 0 0
1 1 1 2 2 3 3 3 3 3 3 3 3 3 3 2 2 1 1 0 0 0 0 0 0 0 0 0 0 0 0 0 0 0 0 0 0 0 0 0 0 0 0
3 3 2 2 2 3 3 3 3 3 3 3 3 3 3 3 3 3 2 1 1 1 0 0 0 0 0 0 0 0 0 0 0 0 0 0 0 0 0 0 0 0 0
4 4 3 3 3 3 3 3 3 3 3 3 3 3 3 3 3 3 3 2 2 2 1 1 0 0 0 0 0 0 0 0 0 0 0 0 0 0 0 0 0 0 0
4 4 3 3 3 3 3 3 3 3 3 3 3 3 3 3 3 3 2 2 2 2 2 2 1 1 1 0 0 0 0 0 0 0 0 0 0 0 0 0 0 0 0
4 4 3 3 3 3 3 2 2 2 3 3 3 3 3 3 3 3 2 1 1 2 3 3 3 2 2 1 0 0 0 0 0 0 0 0 0 0 0 0 0 0 0
4 4 4 4 4 3 3 1 1 2 3 3 3 3 3 3 3 3 3 2 2 2 2 3 3 3 2 1 0 0 0 0 0 0 0 0 0 0 0 0 0 0 0
4 4 5 5 4 4 2 1 1 2 3 3 3 3 3 3 3 3 3 3 3 3 3 2 1 2 1 1 0 0 0 0 0 0 0 0 0 0 0 0 0 0 0
3 4 4 4 4 4 2 1 1 2 3 3 3 3 3 3 3 3 3 3 3 3 3 2 1 1 0 0 0 0 0 0 0 0 0 0 0 0 0 0 0 0 0
Wind_Speed
2 2 1 1 1 1 1 1 1 1 1 2 1 2 2 3 4 4 3 10 11 11 11 12 11 11 11 10 11 11 10 10 10 10 9 8 8 8 8 9 9 9 9
2 2 2 1 1 1 1 2 2 1 1 1 1 1 2 3 3 3 3 5 9 10 11 12 11 11 11 11 11 11 10 10 10 10 10 9 9 8 8 9 9 9 9
3 2 2 2 1 1 1 1 1 1 1 0 1 1 1 2 3 4 3 3 4 8 10 11 11 11 12 11 11 11 11 11 11 11 11 10 10 10 9 9 9 9 9
3 2 2 2 2 1 1 1 1 1 0 0 0 1 1 1 2 3 3 3 3 3 6 10 11 11 11 12 12 11 11 11 11 11 11 11 11 11 10 10 10 10 10
3 3 2 2 2 2 1 1 1 1 1 0 1 0 0 1 1 3 3 4 4 4 3 7 10 11 12 12 12 12 11 12 12 12 12 12 11 11 11 11 11 11 11
3 3 2 1 2 2 1 1 1 1 1 1 0 0 0 1 1 1 2 3 3 4 4 4 4 7 12 12 12 12 12 12 12 12 13 13 12 12 12 12 11 12 12
3 2 2 1 2 2 1 1 1 1 0 1 1 1 2 1 0 1 1 1 2 2 2 3 3 3 4 10 11 12 12 12 12 12 12 12 11 11 12 12 12 12 12
3 3 2 2 2 2 1 1 2 1 0 1 2 1 1 2 2 1 1 1 1 1 2 2 3 4 3 3 5 10 10 11 12 12 12 11 11 12 12 12 12 12 12
3 2 2 2 2 2 2 2 2 3 1 0 1 3 2 2 2 2 1 1 1 1 2 2 3 4 4 3 3 7 9 9 11 11 11 10 10 11 11 11 12 12 13
2 2 2 2 2 1 2 2 2 2 3 1 0 1 2 3 2 1 2 1 2 2 2 3 3 3 4 3 4 6 8 9 10 11 11 10 11 11 11 11 11 11 12
1 1 2 2 2 1 1 1 1 2 2 2 2 1 0 0 2 2 2 2 1 2 2 2 2 2 3 4 4 5 8 8 8 9 10 10 11 11 11 11 12 12 12
0 1 2 1 1 1 1 1 1 2 2 2 1 1 2 2 2 2 2 2 2 2 2 2 2 2 3 3 5 7 7 8 8 8 9 10 11 11 11 12 12 12 12
0 0 1 1 1 1 1 1 1 1 1 1 1 1 1 2 2 2 2 2 2 2 2 2 2 2 2 2 3 6 6 7 7 7 7 8 10 10 10 10 11 12 12
2 1 1 1 1 1 1 1 1 1 1 1 1 1 1 1 1 2 2 2 1 1 2 2 1 1 1 1 3 4 3 5 5 6 6 6 7 9 9 9 10 10 11
2 2 1 1 1 1 1 1 1 0 1 1 1 1 0 1 1 1 1 3 3 1 2 2 1 2 1 1 2 2 2 4 6 6 6 6 6 7 7 7 8 9 9
2 2 2 1 1 0 1 1 1 1 1 1 1 1 0 1 1 0 1 1 2 3 2 2 2 2 2 1 2 2 3 5 6 6 6 6 6 6 7 8 8 9 8
3 3 2 2 1 0 0 1 1 1 1 0 0 1 1 1 0 1 0 1 1 2 2 2 1 1 1 1 1 1 2 2 3 6 7 7 6 7 7 8 9 9 9
2 3 2 1 1 0 0 1 1 0 1 1 1 0 1 1 0 1 0 1 1 2 2 2 1 1 1 2 1 1 1 2 2 5 7 7 7 7 7 8 8 8 9
2 2 2 2 1 1 1 1 1 1 1 1 2 1 1 1 0 0 1 1 1 1 1 2 1 1 1 1 0 1 1 1 3 3 5 6 6 7 7 8 8 8 8
3 3 2 2 2 2 1 1 2 1 1 1 1 1 1 2 2 1 1 1 1 0 0 0 1 1 1 1 0 0 1 1 2 2 2 3 5 6 7 8 8 9 9
3 3 3 2 2 2 2 2 2 1 1 1 1 1 1 1 2 2 1 2 1 1 0 0 1 1 1 1 1 1 1 1 2 1 1 2 2 2 3 5 7 9 9
2 2 2 2 2 2 2 2 2 1 1 1 1 1 1 1 1 1 1 2 3 3 2 2 1 2 3 2 2 1 1 0 2 2 1 2 1 2 3 3 6 8 9
2 2 2 2 3 3 3 3 2 2 1 1 1 1 1 2 1 1 2 2 2 3 5 4 3 4 4 4 2 2 2 2 3 3 1 3 2 3 3 4 7 9 9
2 2 3 3 3 3 4 3 2 1 1 2 2 2 2 2 2 1 1 2 3 3 4 3 4 5 5 4 4 4 4 2 2 2 2 2 2 3 3 3 6 8 9
2 2 2 3 3 4 4 4 3 1 1 2 2 2 3 3 4 2 1 2 4 5 5 5 6 6 7 6 4 1 1 1 2 3 2 2 2 2 2 3 4 6 8
3 3 2 3 4 4 5 5 4 2 1 2 2 2 3 3 4 3 2 2 4 5 4 4 4 4 4 4 5 4 4 3 2 3 3 2 2 1 2 2 2 2 3
Wind_Direction
165 172 176 162 194 201 197 203 230 230 233 250 233 190 178 186 194 200 202 198 192 189 189 189 188 188 190 194 194 195 196 194 194 192 191 190 188 190 192 191 190 190 190
162 162 163 161 195 206 203 203 206 210 218 222 236 185 183 180 193 193 198 197 197 195 196 197 195 195 195 200 203 202 201 198 198 197 197 196 195 193 193 192 191 192 192
164 162 157 165 187 191 192 194 193 160 183 211 221 187 171 187 200 193 189 179 196 204 204 204 202 203 202 204 209 210 207 201 202 201 202 200 200 199 196 194 194 194 194
164 156 159 171 163 153 146 160 174 126 106 112 232 230 193 199 189 187 177 181 191 203 209 208 208 210 209 208 210 213 210 208 204 205 205 204 205 204 201 198 198 198 196
154 147 157 160 154 134 130 171 133 140 144 179 220 200 199 214 199 186 184 190 197 201 204 213 214 216 216 213 213 215 213 209 208 209 210 208 209 208 205 204 203 201 200
144 134 135 143 133 116 109 110 129 120 146 180 189 47 279 259 199 191 193 191 199 206 207 214 216 221 222 221 218 215 216 214 213 213 212 211 211 210 208 209 208 208 206
139 134 139 140 136 136 156 148 139 114 79 90 73 12 341 329 313 226 211 193 209 212 200 209 213 210 225 227 223 220 220 220 219 217 216 215 214 213 212 213 213 213 212
148 148 149 149 146 137 127 131 130 131 186 115 117 95 357 339 324 281 232 204 207 201 203 217 216 208 205 205 222 221 223 222 222 219 217 216 215 214 215 215 217 219 218
157 147 147 139 141 138 154 171 154 148 164 256 141 146 149 225 288 313 262 231 217 212 219 223 225 214 207 201 216 224 221 220 221 220 216 214 212 212 214 217 219 221 220
157 151 141 134 136 137 158 179 150 152 145 171 252 207 178 172 168 278 309 281 238 226 228 229 232 218 205 200 211 213 217 217 220 224 222 217 215 214 214 218 220 221 221
143 140 130 128 133 138 141 141 131 134 146 164 187 194 170 169 157 164 248 296 307 268 243 232 230 220 209 207 212 217 214 213 220 226 226 221 218 218 219 222 225 225 225
73 112 123 118 124 125 137 156 147 143 157 163 172 172 174 181 186 173 203 238 263 271 256 237 222 218 209 209 219 216 213 213 219 225 226 222 220 222 223 226 228 229 227
157 219 130 129 130 131 143 129 121 117 142 155 180 195 191 211 185 169 178 216 250 278 286 266 236 220 213 198 222 218 217 216 216 219 223 223 223 223 224 227 230 231 230
193 185 148 149 140 125 116 117 108 124 118 139 144 152 178 244 192 176 173 170 230 307 317 288 295 238 222 202 219 216 225 215 210 214 218 219 221 222 224 230 231 229 227
176 157 144 130 133 131 129 123 107 149 130 144 147 126 146 274 252 211 177 170 167 197 269 278 284 268 233 215 213 202 210 218 217 216 213 213 215 218 219 229 230 225 223
159 144 145 141 129 133 131 118 123 151 116 119 149 131 283 277 289 247 189 179 170 170 217 255 245 251 235 225 206 201 215 217 220 219 213 213 218 223 223 229 231 228 224
157 158 165 161 154 181 149 137 171 131 116 335 329 168 252 254 286 295 222 148 162 158 194 271 277 273 231 241 260 231 214 201 214 219 216 215 219 224 226 230 233 232 228
168 163 156 144 132 118 140 156 201 166 184 226 258 256 274 254 274 260 170 151 176 176 175 225 287 290 255 236 219 225 233 216 219 226 222 221 223 226 230 233 234 234 232
169 163 155 159 169 175 192 221 208 200 205 224 222 208 233 178 236 256 164 179 202 169 163 185 253 264 274 274 87 283 263 266 244 236 229 232 234 233 236 237 236 235 236
172 160 167 181 188 192 203 221 218 206 226 255 259 222 200 186 202 209 192 220 201 192 192 192 254 272 271 290 110 211 296 278 265 265 253 240 238 238 242 241 240 239 239
179 172 175 186 190 195 214 205 219 206 209 253 280 254 218 194 186 186 183 200 182 189 207 226 251 287 282 276 240 224 233 278 286 263 264 268 244 243 246 244 242 241 237
183 170 187 190 198 220 217 195 186 195 217 223 256 281 286 275 255 241 239 206 182 184 193 200 227 236 252 242 234 219 203 207 281 267 197 273 241 242 246 235 240 237 238
188 184 198 191 206 230 219 212 203 182 205 219 218 244 280 298 301 287 297 312 284 245 205 192 210 231 236 231 215 229 222 207 232 245 171 269 267 257 254 250 241 237 238
194 207 213 206 210 234 221 217 209 172 209 234 221 211 231 269 271 238 259 291 286 274 247 219 219 235 238 232 215 217 217 224 269 272 182 235 264 259 269 262 249 238 237
214 222 215 203 206 236 232 222 194 177 230 256 252 236 229 243 258 239 215 259 281 285 273 256 243 248 255 252 229 187 193 177 265 271 226 203 248 268 278 273 266 249 240
216 217 226 222 214 228 234 222 191 172 216 258 275 276 258 246 257 243 216 231 263 275 287 298 288 282 267 263 238 207 197 197 219 254 238 195 230 222 288 281 270 268 256